Location: ??????????
(42.1626°N, 44.1160°E)
Time: 11:15:03
(UTC+00:00)

DMSP B5D2-2 - Pass Details

Date: 03 March 2021
Orbit: 789 x 806 km, 98.3° (Epoch: 20 April)

Event Time Altitude Azimuth Distance (km) Brightness Sun altitude
Rises 16:26:56 0° 14° (NNE) 3,308 7.2 -17.6°
Reaches altitude 10° 16:29:17 10° 16° (NNE) 2,371 6.4 -18.1°
Maximum altitude 16:34:31 77° 102° (ESE) 817 3.9 -19.0°
Drops below altitude 10° 16:39:42 10° 189° (S) 2,346 6.5 -20.0°
Sets 16:42:01 0° 191° (S) 3,270 7.3 -20.4°
